Location: Wayah Bald
(35.1806°N, 83.5603°W)
Time: 12:00:08
(UTC-05:00)

Daily predictions for brighter satellites

Satellite Brightness Start Highest point End
(mag) Time Altitude Azimuth Time Altitude Azimuth Time Altitude Azimuth
Cosmos 1656 4.0 17:42:16 10° S 17:47:34 46° ESE 17:52:50 10° NE
COSMO-SKYMED 1 3.8 17:47:25 10° NE 17:50:49 22° E 17:54:12 10° SSE
Cosmos 1666 2.8 17:47:21 10° N 17:51:01 53° E 17:54:40 10° SSE
SJ 16-02 1.7 17:47:26 10° S 17:51:37 46° ESE 17:55:49 10° NNE
CZ-2C R/B 4.2 17:47:45 10° NNE 17:52:14 43° E 17:56:45 10° S
Cosmos 2279 Rocket 4.2 17:46:26 10° S 17:52:41 79° W 17:58:59 10° N
IDEFIX/ARIANE 42P 4.5 17:48:45 10° SSW 17:53:26 35° W 17:58:10 10° NNW
Cosmos 1975 Rocket 4.3 17:49:45 10° SSW 17:54:01 45° W 17:58:20 10° N
Cosmos 372 Rocket 4.2 17:50:37 10° S 17:55:42 55° ESE 18:00:46 10° NNE
SMAP 3.0 17:56:42 10° SSE 18:01:18 69° ENE 18:05:56 10° N
Cosmos 1975 4.0 18:00:15 10° NNW 18:04:09 48° W 18:08:04 10° SSW
GOES 2 Rocket 4.3 18:01:27 10° WSW 18:05:19 35° S 18:09:44 10° ESE
Meteor 2-4 Rocket 3.6 18:00:19 10° S 18:05:44 67° E 18:11:04 10° NNE
RESURS DK-1 4.4 18:06:08 10° ESE 18:07:20 11° E 18:08:20 10° E
CSL-04 Debris 4.1 18:01:58 10° SSE 18:07:20 84° ENE 18:12:46 10° NNW
NOSS 3-2 (A) 4.4 18:01:12 10° NNW 18:08:18 41° NE 18:15:55 10° ESE
MTI 4.5 18:08:40 10° NNE 18:11:41 35° E 18:14:40 10° SSE
DELTA 2 R/B (1) 3.9 18:09:57 10° WNW 18:15:25 54° N 18:20:00 15° ENE
ALOS 3.2 18:11:45 10° SE 18:15:35 26° ENE 18:19:25 10° NNE
Meteor 1-13 Rocket 4.5 18:10:15 10° SSW 18:15:48 74° W 18:21:30 10° N
Cosmos 1025 Rocket 3.9 18:12:24 10° SSE 18:16:05 28° E 18:19:45 10° NNE
BREEZE-M DEB (TANK) 3.0 18:13:03 10° NW 18:16:05 62° NE 18:25:56 10° ESE
Cosmos 2369 3.8 18:11:13 10° SSW 18:16:53 82° WNW 18:22:37 10° NNE
Cosmos 2278 3.8 18:11:47 10° SSW 18:17:28 85° WNW 18:23:12 10° NNE
ATLAS 2AS CENTAUR R/B 4.1 18:11:53 10° WSW 18:19:04 40° NW 18:26:38 10° NNE
FENGYUN 3A 4.3 18:16:51 10° SE 18:21:33 32° ENE 18:26:15 10° N
Cosmos 1536 Rocket 3.7 18:17:52 10° S 18:22:13 77° W 18:26:34 10° N
ATLAS 3B R/B 2.5 18:15:55 10° NNW 18:22:33 76° ENE 18:29:01 10° SE
METEOR-M 4.2 18:17:34 10° SSE 18:22:45 55° ENE 18:27:58 10° N
CZ-4 R/B 1.3 18:20:17 10° SSE 18:24:08 89° WSW 18:28:05 10° NNW
Cosmos 1241 Rocket 4.5 18:17:48 10° SSW 18:24:10 70° ESE 18:30:26 10° NNE
CSL-04 Rocket 4.3 18:18:51 10° S 18:24:10 60° WSW 18:29:36 10° NNW
Hubble Space Telescope 2.8 18:23:01 10° WSW 18:26:24 24° SSW 18:29:46 10° SE
Meteor 1-28 Rocket 4.2 18:23:04 10° N 18:26:43 48° WNW 18:30:21 10° SSW
OAO 1 Rocket 4.4 18:23:17 10° W 18:28:39 89° S 18:32:35 19° E
Cosmos 158 Rocket 3.8 18:23:42 10° NNW 18:28:46 87° ENE 18:33:41 10° SSE
Cosmos 2084 3.5 18:25:57 10° SSW 18:30:07 57° ESE 18:32:45 20° NE
USA 215 3.2 18:23:42 10° SE 18:30:14 87° NE 18:36:49 10° NW
DELTA 2 R/B (2) 4.4 18:31:23 10° SW 18:34:01 58° SSE 18:35:43 27° E
Cosmos 1697 Rocket 2.6 18:29:38 10° SSW 18:35:17 81° ESE 18:40:56 10° NNE
Meteor 1-15 Rocket 4.4 18:30:24 10° N 18:36:13 55° ENE 18:41:57 10° SSE
Cosmos 1515 3.6 18:32:41 10° S 18:36:24 60° E 18:39:55 12° NNE
EO 1 Del DPAF 3.2 18:33:37 11° NNE 18:37:16 62° E 18:41:02 10° S
H-2A R/B 3.3 18:36:23 10° SSW 18:37:54 16° SSE 18:39:07 13° SE
SKYMED 2 3.5 18:34:40 10° NNE 18:39:02 84° ESE 18:43:21 10° S
NOSS 3-4 (A) 3.4 18:34:04 10° SSW 18:40:16 87° ESE 18:45:48 14° NNE
NOSS 3-4 (C) 3.4 18:34:10 10° SSW 18:40:22 86° ESE 18:45:51 15° NNE
Okean 2 3.3 18:40:37 10° S 18:44:40 64° E 18:48:05 14° NNE
NOSS 2-2 (D) 4.0 18:45:17 10° S 18:48:47 33° ESE 18:49:14 32° E
Cosmos 2082 3.8 18:45:15 10° NNW 18:50:52 77° WSW 18:56:29 10° SSE
PSLV R/B 4.4 18:48:22 10° WNW 18:51:06 26° N 18:51:14 26° N
ERS-2 1.9 18:51:10 10° SSE 18:54:49 79° ENE 18:58:29 10° N
ISS -2.3 18:52:35 10° WNW 18:55:39 37° SW 18:58:41 10° SSE
Cosmos 2266 Rocket 4.4 18:51:00 10° NNW 18:57:01 63° W 19:03:08 10° S
SPOT 3 Rocket 3.4 18:52:50 10° SSE 18:57:59 73° ENE 19:03:09 10° N
Fregat R/B Cluster 11 4.2 18:55:35 10° SSW 19:00:19 42° ESE 19:00:32 42° ESE
Cosmos 2227 Rocket 3.3 18:57:09 10° NW 19:02:32 46° WSW 19:07:53 10° S
CENTAUR R/B 3.7 18:55:53 10° NNW 19:02:52 32° NE 19:04:34 30° ENE
NOSS 2-2 (E) 3.3 19:00:42 10° SSW 19:04:30 63° ESE 19:05:01 56° ENE
YAOGAN 1 4.0 19:03:38 10° SSW 19:07:40 39° W 19:11:45 10° NNW
Cosmos 1892 Rocket 4.2 19:03:32 10° SSE 19:06:53 38° ESE 19:06:53 38° ESE
NOSS 2-2 (C) 3.2 19:07:22 10° SSW 19:11:09 63° ESE 19:11:09 63° ESE
Thor Agena Rocket 3.7 19:12:20 46° E 19:12:55 48° E 19:18:00 10° S
S3M 4.0 19:09:02 10° SSE 19:14:56 53° E 19:17:05 36° NE
Cosmos 1980 Rocket 2.2 19:10:37 10° SSW 19:16:16 79° WNW 19:19:35 26° NNE
Cosmos 1066 Rocket 4.0 19:11:48 10° S 19:17:19 70° E 19:19:39 35° NNE
Cosmos 494 Rocket 3.9 19:15:07 10° NNW 19:20:22 66° ENE 19:23:05 28° SE
Cosmos 2297 Rocket 4.0 19:24:04 10° NW 19:29:00 32° WSW 19:33:55 10° SSW
SJ 16-02 4.2 19:28:16 10° W 19:30:27 13° WNW 19:32:37 10° NNW
Atlas Centaur 2 3.6 19:27:56 10° WSW 19:31:43 21° SSW 19:33:25 17° S
Gblst 52 Del rocket 4.4 19:27:22 10° NW 19:33:02 57° NE 19:33:02 57° NE
Lacrosse 5 rocket 3.3 19:31:53 10° SSW 19:33:24 20° S 19:33:24 20° S
Cosmos 2344 3.6 19:32:44 10° S 19:40:10 52° ESE 19:40:35 52° ESE
RESURS DK-1 3.4 19:40:55 10° SW 19:44:19 43° W 19:44:19 43° W
Cosmos 1553 Rocket 4.2 19:42:03 10° SSW 19:48:26 72° W 19:52:38 23° N
ALOS 4.3 19:48:59 10° SSW 19:52:53 26° W 19:56:48 10° NW
SL-08 R/B 4.5 19:47:26 10° N 19:53:42 80° W 19:59:52 10° S
SL-16 R/B 3.0 19:51:54 10° SSW 19:55:26 40° S 19:55:26 40° S
DELTA 2 R/B (1) 4.2 19:56:37 10° WNW 20:00:47 52° WNW 20:00:47 52° WNW
Cosmos 2322 Rocket 3.2 19:57:02 10° SSW 20:00:14 36° SSW 20:00:14 36° SSW
CENTAUR R/B 3.8 20:46:05 10° NW 20:51:51 48° WNW 20:51:51 48° WNW
